Weather Roundup
Issued by NWS Corpus Christi, TX

Home | Current Version | Previous Version | Text Only | Print | Product List | Glossary On
Versions: 1 2 3 4 5 6 7 8 9 10 11 12 13 14 15 16 17 18 19 20 21 22 23 24 25 26 27 28 29 30 31 32 33 34 35 36 37 38 39 40 41 42 43 44 45 46 47 48 49 50
000
ASUS44 KCRP 181510
HRRCRP

SOUTH TEXAS REGIONAL WEATHER ROUNDUP
NATIONAL WEATHER SERVICE CORPUS CHRISTI TX
1000 AM CDT WED OCT 18 2017


TXZ229>244-181600-
...CORPUS CHRISTI AREA OBSERVATIONS...

CITY           SKY/WX    TMP DP  RH WIND       PRES   REMARKS
CORPUS CHRISTI MOSUNNY   73  57  57 NE6       30.17R
NAS CORPUS CHR MOSUNNY   75  65  70 N6        30.16R HAZE
ROCKPORT       SUNNY     72  58  61 NE9       30.17R HAZE
KINGSVILLE ARP FAIR      71  58  64 CALM      30.18R
KINGSVILLE NAS MOSUNNY   69  57  65 NW6       30.18R
ALICE          SUNNY     70  54  56 NE3       30.17R
$$

...VICTORIA AREA OBSERVATIONS...

CITY           SKY/WX    TMP DP  RH WIND       PRES   REMARKS
PORT LAVACA    SUNNY     67  54  62 NE6       30.18R
VICTORIA       SUNNY     65  55  70 CALM      30.18R
BEEVILLE       FAIR      69  52  55 E5        30.17S
PLEASANTON     SUNNY     63  50  63 CALM      30.19R
SAN ANTONIO    MOSUNNY   65  49  56 CALM      30.19R
$$

...LAREDO AREA OBSERVATIONS...

CITY           SKY/WX    TMP DP  RH WIND       PRES   REMARKS
LAREDO         SUNNY     68  62  81 S7        30.18R
COTULLA        SUNNY     66  53  63 SE5       30.18R
DEL RIO        SUNNY     62  48  60 E8        30.15R
MCALLEN        SUNNY     72  63  73 CALM      30.17R
HEBBRONVILLE   SUNNY     68  58  70 CALM      30.18R
$$

...OTHER TEXAS OBSERVATIONS...

CITY           SKY/WX    TMP DP  RH WIND       PRES   REMARKS
BROWNSVILLE    SUNNY     75  67  76 VRB3      30.15R
HOUSTON        SUNNY     68  54  60 CALM      30.19R
COL. STATION   SUNNY     64  51  62 S3        30.19S
AUSTIN         MOSUNNY   60  51  72 CALM      30.19R
WACO           SUNNY     64  48  56 S7        30.19R
FORT WORTH     MOSUNNY   65  47  52 S10       30.16R
WICHITA FALLS  SUNNY     62  46  55 S13       30.10R
LUBBOCK        PTSUNNY   63  42  46 SW10      30.11R
EL PASO        PTSUNNY   67  45  45 CALM      30.15R
$$

...MARINE OBSERVATIONS...

STATION/POSITION TIME  SKY/WX   TEMP    WIND        PRES    VSBY  WAVE   SWELL
                                AIR SEA DIR/SP/G                  HT/PER HT/PER
                 (UTC)          (F)     (DEG/KT/KT) (MB)    (MI)  (FT/S) (FT/S)
PORT ARANSAS     NOT AVBL
BUOY 90 E PORT A 1450            77 82   90/  4/  8 1021.0R         2/ 5   2/ 5
BUOY 200 E PT IS 1350            80 84   40/  8/ 10 1018.8          4/ 7   3/ 7
BUOY 15 E GALVES 1350            75 78   90/  8/ 12 1021.0          2/ 5   2/ 5
$$



USA.gov is the U.S. government's official web portal to all federal, state and local government web resources and services.